LEMUR-2-NATALIEMURRAY (43887 NORAD) Tracking and Keplerian Element Data

This shows tracking and keplerian element data for the satellite.

Feedback or suggestion? Click here.




ElementValue
Catalog43887
NameLEMUR-2-NATALIEMURRAY
Epoch Orbit426
Epoch Day24.69480623
Epoch Year2019
RAAN294.7787
Inclination97.7295
Eccentricity0.0012377
Argument of Perigee140.0345
Mean Anonmoly220.1789
Mean Motion14.96642112
Decay Rate1.091E-05
L11 43887U 18111M 19024.69480623 .00001091 00000-0 10071-3 0 9999
L22 43887 97.7295 294.7787 0012377 140.0345 220.1789 14.96642112 4269

Live tracking and technical data element details for LEMUR-2-NATALIEMURRAY (NORAD 43887). LEMUR-2-NATALIEMURRAY can be tracked NOW for your location showing map with azimuth and elevation plus other details from your city location.

Track the satellite on the map from your city or location and see movement details for azimuth, elevation, latitude, longitude, range, height, and movement on the map or in text.







IsCatalogInMostPopularTable: catalog: 43887, numindb: 74
Update: records affected: 1



GetName: 43887 LEMUR-2-NATALIEMURRAY

Hit Count: updated at: Tue, 16 Jul 2019 21:05:32 GMT